Regional Weather Roundup
Issued by NWS Glasgow, MT

Home | Current Version | Previous Version | Text Only | Print | Product List | Glossary On
Versions: 1 2 3 4 5 6 7 8 9 10 11 12 13 14 15 16 17 18 19 20 21 22 23 24 25 26 27 28 29 30 31 32 33 34 35 36 37 38 39 40 41 42 43 44 45 46 47 48 49 50
652
ASUS45 KGGW 111315
RWRGGW
HOURLY REGIONAL WEATHER ROUNDUP FOR NORTHEAST MONTANA
NATIONAL WEATHER SERVICE GLASGOW MONTANA
600 AM MST THU FEB 11 2016

NOTE: "FAIR" INDICATES FEW OR NO CLOUDS BELOW 12,000 FEET WITH NO
SIGNIFICANT WEATHER AND/OR OBSTRUCTIONS TO VISISBILITY.

NORTHEAST MONTANA


CITY           SKY/WX    TMP DP  RH WIND       PRES   REMARKS
GLASGOW        CLOUDY    29  25  85 E9        30.01R
PLENTYWOOD       N/A     21  20  96 E7          N/A
WOLF POINT     LGT SNOW  28  23  81 NE12      30.04S
JORDAN           N/A     30  29  96 W5        29.97R
WINNETT          N/A     41  30  65 CALM        N/A
SIDNEY         CLOUDY    28  25  86 NE3       30.04S VSB 3/4
GLENDIVE       CLOUDY    28  27  93 N7        30.00R
MALTA            N/A     32  32 100 NE2         N/A
SCOBEY           N/A     23  16  74 N6        30.02R HAZE

FORT PECK REPORTS


CITY           SKY/WX    TMP DP  RH WIND       PRES   REMARKS
FORT PECK        N/A     29  29 100 NE12        N/A
THE PINES        N/A     32  28  85 NE3         N/A

SOUTHEAST MONTANA


CITY           SKY/WX    TMP DP  RH WIND       PRES   REMARKS
BILLINGS       PTCLDY    50  23  34 NW15      30.06R
MILES CITY     CLOUDY    31  28  89 NW3       29.98S
BAKER          CLOUDY    31  27  85 SE6       29.96F
LIVINGSTON     CLOUDY    47  21  35 SW28G36   30.15S

CENTRAL MONTANA


CITY           SKY/WX    TMP DP  RH WIND       PRES   REMARKS
HAVRE          CLOUDY    29  28  96 W5        30.03R FOG
LEWISTOWN      CLEAR     41  29  62 W23       30.06R
GREAT FALLS    CLOUDY    35  23  61 SW5       30.11S
CUT BANK       MOCLDY    42  26  53 W23       30.06R
HELENA         CLOUDY    40  30  67 CALM      30.20R
BUTTE          CLOUDY    31  23  72 CALM      30.24R
BOZEMAN        CLOUDY    29  23  78 CALM      30.23R

WESTERN MONTANA


CITY           SKY/WX    TMP DP  RH WIND       PRES   REMARKS
MISSOULA       MOCLDY    32  30  92 CALM      30.29S
KALISPELL      NOT AVBL

NORTH DAKOTA


CITY           SKY/WX    TMP DP  RH WIND       PRES   REMARKS
WILLISTON      LGT SNOW  23  20  88 NE6       30.07S FOG
DICKINSON      LGT SNOW  24  22  91 E8        29.99S FOG
MINOT          CLOUDY    14   7  73 E3        30.13S
BISMARCK       LGT SNOW  19  14  81 SE6       30.13F

SOUTHERN SASKATCHEWAN


CITY           SKY/WX    TMP DP  RH WIND       PRES   REMARKS
REGINA         FLURRIES  14  10  85 E5        30.14R
MOOSE JAW      LGT SNOW  16  14  93 NE7       30.14R
ESTEVAN        FLURRIES  14  10  85 E9        30.12R
SWIFT CURRENT  LGT SNOW  18  18 100 E12       30.03R





USA.gov is the U.S. government's official web portal to all federal, state and local government web resources and services.